Regional Weather Roundup
Issued by NWS

Home | Current Version | Previous Version | Text Only | Print | Product List | Glossary Off
Versions: 1 2 3 4 5 6 7 8 9 10 11 12 13 14 15 16 17 18 19 20 21 22 23 24 25 26 27 28 29 30 31 32 33 34 35 36 37 38 39 40 41 42 43 44 45 46 47 48 49 50

000
ASUS43 KLOT 152206
RWRIL

ILLINOIS REGIONAL WEATHER ROUNDUP
NATIONAL WEATHER SERVICE CHICAGO/ROMEOVILLE IL
500 PM CDT TUE APR 15 2014

NOTE: "FAIR" INDICATES FEW OR NO CLOUDS BELOW 12,000 FEET WITH NO
SIGNIFICANT WEATHER AND/OR OBSTRUCTIONS TO VISIBILITY.

* THESE STATIONS ARE NOT UNDER NWS QUALITY CONTROL. THEY ALSO MAY NOT
  REPORT WEATHER SUCH AS PRECIPITATION OR FOG.

ILZ001-002-007-009-015-016-024-152300-
NORTHWEST ILLINOIS

CITY           SKY/WX    TMP DP  RH WIND       PRES   REMARKS
MOLINE         SUNNY     42  10  27 W13       30.13F
STERLING*      PTSUNNY   43  18  36 W10       30.13S
SAVANNA*       MOSUNNY   41  14  33 W9        30.13S
$$

ILZ003-004-008-010-011-017-018-152300-
NORTH CENTRAL ILLINOIS

CITY           SKY/WX    TMP DP  RH WIND       PRES   REMARKS
ROCKFORD       PTSUNNY   40  15  36 W9        30.14S
FREEPORT*      PTSUNNY   39  16  38 SW7       30.13F WCI  34
DE KALB*       CLOUDY    34  18  52 W5        30.13S WCI  30
$$

ILZ005-006-012>014-019>023-152300-
NORTHEAST ILLINOIS

CITY           SKY/WX    TMP DP  RH WIND       PRES   REMARKS
CHICAGO-OHARE  PTSUNNY   36  16  44 NW9       30.13F WCI  29
CHICAGO-MIDWAY PTSUNNY   35  17  47 E5        30.14F WCI  31
AURORA         PTSUNNY   36  19  50 W8        30.14F WCI  30
LANSING*       PTSUNNY   34  15  45 E3        30.15F
WAUKEGAN       CLOUDY    30  19  63 E15G21    30.12F WCI  19
DUPAGE AIRPORT CLOUDY    36  18  48 W13       30.13S WCI  27
KANKAKEE*      CLOUDY    37  19  47 W9        30.17S WCI  31
WHEELING       CLOUDY    36  16  44 SW6       30.14F WCI  31
MORRIS*        CLOUDY    38  17  43 NW6       30.15S WCI  33
NORTHERLY ISL    N/A     31  18  58 E13         N/A  WCI  21
$$

LMZ740>746-152300-
SOUTHERN LAKE MICHIGAN

STATION/POSITION SKY/WX   TEMP    WIND        PRES    VSBY  WAVE
                          AIR SEA DIR/SP/G                  HT/PER
                          (F)     (DEG/KT/KT) (MB)    (MI)  (FT/S)
WAUKEGAN HARBOR            31     140/ 15/ 18 1021.7F
HARRISON CRIB              29     110/ 14/ 17   N/A
BURNHAM HARBOR             31     100/  9/ 12   N/A
CALUMET HARBOR             31      90/ 10/ 13 1021.8F
MICHIGAN CITY              31      20/  5/  7   N/A
$$

ILZ025>027-034>036-040-047-049-050-058-095>099-152300-
WEST-CENTRAL ILLINOIS

CITY           SKY/WX    TMP DP  RH WIND       PRES   REMARKS
QUINCY         SUNNY     45  17  32 W5        30.14F
GALESBURG*     SUNNY     43  21  41 W13       30.14S
MACOMB*        SUNNY     43  22  42 W6G22     30.17S
JACKSONVILLE*  SUNNY     45  18  34 NW7G20    30.17F
PITTSFIELD*    MOSUNNY   46  18  31 W12       30.16F
$$

ILZ028>032-037-038-041>044-048-051>054-059>061-152300-
CENTRAL ILLINOIS

CITY           SKY/WX    TMP DP  RH WIND       PRES   REMARKS
PONTIAC        MOSUNNY   39  21  48 W8        30.15S WCI  34
BLOOMINGTON    MOSUNNY   39  15  38 W9        30.16F WCI  33
DECATUR        PTSUNNY   43  18  36 NW8       30.17F
PEORIA         MOSUNNY   43  16  33 VRB6      30.15F
LACON*         MOSUNNY   40  16  37 W7G17     30.14F
LINCOLN*       MOSUNNY   44  16  32 NW6       30.17S
SPRINGFIELD    MOSUNNY   45  16  31 NW7G18    30.17S
TAYLORVILLE    MOSUNNY   41  21  45 W10G16    30.18S
$$

ILZ033-039-045-046-055>057-062-063-152300-
EAST-CENTRAL ILLINOIS

CITY           SKY/WX    TMP DP  RH WIND       PRES   REMARKS
CHAMPAIGN      PTSUNNY   42  21  43 N10       30.16F
RANTOUL*       MOSUNNY   40  22  48 CALM      30.17F
MATTOON        PTSUNNY   41  20  43 NW12      30.17F
PARIS*         CLOUDY    40  23  51 NW8       30.19S
$$

ILZ079-100>102-152300-
SOUTHWEST ILLINOIS

CITY           SKY/WX    TMP DP  RH WIND       PRES   REMARKS
ALTON          MOSUNNY   46  16  29 W9        30.18
BELLEVILLE     SUNNY     48  19  31 VRB5G17   30.18F
CAHOKIA*       MOSUNNY   47  21  35 NW9       30.19F
SPARTA*        SUNNY     45  21  39 NW5       30.21S
$$

ILZ064>066-069>071-074>076-080>082-084>086-088>090-092>094-152300-
SOUTH-CENTRAL ILLINOIS

CITY           SKY/WX    TMP DP  RH WIND       PRES   REMARKS
CARBONDALE     SUNNY     47  21  35 MISG      30.21S
CAIRO*         SUNNY     51  21  30 N13G18    30.20S
MARION         MOSUNNY   46  21  36 N12G18    30.22S
MT. VERNON     MOSUNNY   45  19  36 N6        30.21S
CENTRALIA*       N/A     43  19  39 NW6       30.20F
SALEM*         PTSUNNY   45  24  43 NW6       30.20S
METROPOLIS*    SUNNY     47  15  27 N7        30.20S
$$

ILZ067-068-072-073-078-083-087-091-152300-
SOUTHEAST ILLINOIS

CITY           SKY/WX    TMP DP  RH WIND       PRES   REMARKS
FLORA*         SUNNY     44  20  39 W13G18    30.21R
FAIRFIELD*     MOSUNNY   45  19  36 NW6G18    30.21R
HARRISBURG*    SUNNY     44  20  39 NW10G18   30.22S
ROBINSON*      MOSUNNY   43  26  52 NW10      30.21S
CARMI*         CLOUDY    47  28  46 NW10      30.21R
$$

ABBREVIATIONS USED IN REMARKS
   TC - TEMPERATURE IN CELSIUS
  WCI - WIND CHILL INDEX
   HX - HEAT INDEX
  VSB - VISIBILITY
$$




USA.gov is the U.S. government's official web portal to all federal, state and local government web resources and services.